Year,Month,Day,Hour,Minute,Value (Times are PST for temperature in C)
2008,08,04,00,00,13.70
2008,08,04,00,01,13.70
2008,08,04,00,02,13.70
2008,08,04,00,03,13.70
2008,08,04,00,04,13.70
2008,08,04,00,05,13.70
2008,08,04,00,06,13.70
2008,08,04,00,07,13.70
2008,08,04,00,08,13.70
2008,08,04,00,09,13.70
2008,08,04,00,10,13.70
2008,08,04,00,11,13.70
2008,08,04,00,12,13.70
2008,08,04,00,13,13.70
2008,08,04,00,14,13.70
2008,08,04,00,15,13.70
2008,08,04,00,16,13.70
2008,08,04,00,17,13.70
2008,08,04,00,18,13.70
2008,08,04,00,19,13.60
2008,08,04,00,20,13.60
2008,08,04,00,21,13.60
2008,08,04,00,22,13.60
2008,08,04,00,23,13.60
2008,08,04,00,24,13.60
2008,08,04,00,25,13.60
2008,08,04,00,26,13.60
2008,08,04,00,27,13.60
2008,08,04,00,28,13.60
2008,08,04,00,29,13.60
2008,08,04,00,30,13.60
2008,08,04,00,31,13.60
2008,08,04,00,32,13.60
2008,08,04,00,33,13.60
2008,08,04,00,34,13.50
2008,08,04,00,35,13.50
2008,08,04,00,36,13.50
2008,08,04,00,37,13.50
2008,08,04,00,38,13.50
2008,08,04,00,39,13.50
2008,08,04,00,40,13.50
2008,08,04,00,41,13.50
2008,08,04,00,42,13.50
2008,08,04,00,43,13.50
2008,08,04,00,44,13.50
2008,08,04,00,45,13.50
2008,08,04,00,46,13.50
2008,08,04,00,47,13.50
2008,08,04,00,48,13.40
2008,08,04,00,49,13.40
2008,08,04,00,50,13.40
2008,08,04,00,51,13.40
2008,08,04,00,52,13.40
2008,08,04,00,53,13.40
2008,08,04,00,54,13.30
2008,08,04,00,55,13.30
2008,08,04,00,56,13.30
2008,08,04,00,57,13.30
2008,08,04,00,58,13.30
2008,08,04,00,59,13.30
2008,08,04,01,00,13.30
2008,08,04,01,01,13.30
2008,08,04,01,02,13.30
2008,08,04,01,03,13.30
2008,08,04,01,04,13.30
2008,08,04,01,05,13.30
2008,08,04,01,06,13.30
2008,08,04,01,07,13.30
2008,08,04,01,08,13.20
2008,08,04,01,09,13.20
2008,08,04,01,10,13.20
2008,08,04,01,11,13.20
2008,08,04,01,12,13.20
2008,08,04,01,13,13.20
2008,08,04,01,14,13.10
2008,08,04,01,15,13.10
2008,08,04,01,16,13.00
2008,08,04,01,17,13.00
2008,08,04,01,18,12.90
2008,08,04,01,19,12.90
2008,08,04,01,20,12.90
2008,08,04,01,21,12.90
2008,08,04,01,22,12.80
2008,08,04,01,23,12.80
2008,08,04,01,24,12.80
2008,08,04,01,25,12.80
2008,08,04,01,26,12.80
2008,08,04,01,27,12.80
2008,08,04,01,28,12.70
2008,08,04,01,29,12.70
2008,08,04,01,30,12.70
2008,08,04,01,31,12.70
2008,08,04,01,32,12.70
2008,08,04,01,33,12.70
2008,08,04,01,34,12.70
2008,08,04,01,35,12.70
2008,08,04,01,36,12.70
2008,08,04,01,37,12.60
2008,08,04,01,38,12.60
2008,08,04,01,39,12.60
2008,08,04,01,40,12.50
2008,08,04,01,41,12.40
2008,08,04,01,42,12.40
2008,08,04,01,43,12.30
2008,08,04,01,44,12.30
2008,08,04,01,45,12.30
2008,08,04,01,46,12.30
2008,08,04,01,47,12.30
2008,08,04,01,48,12.30
2008,08,04,01,49,12.30
2008,08,04,01,50,12.30
2008,08,04,01,51,12.30
2008,08,04,01,52,12.30
2008,08,04,01,53,12.30
2008,08,04,01,54,12.30
2008,08,04,01,55,12.30
2008,08,04,01,56,12.30
2008,08,04,01,57,12.30
2008,08,04,01,58,12.20
2008,08,04,01,59,12.20
2008,08,04,02,00,12.20
2008,08,04,02,01,12.20
2008,08,04,02,02,12.10
2008,08,04,02,03,12.10
2008,08,04,02,04,12.10
2008,08,04,02,05,12.10
2008,08,04,02,06,12.10
2008,08,04,02,07,12.10
2008,08,04,02,08,12.10
2008,08,04,02,09,12.10
2008,08,04,02,10,12.10
2008,08,04,02,11,12.20
2008,08,04,02,12,12.20
2008,08,04,02,13,12.20
2008,08,04,02,14,12.20
2008,08,04,02,15,12.20
2008,08,04,02,16,12.20
2008,08,04,02,17,12.20
2008,08,04,02,18,12.20
2008,08,04,02,19,12.20
2008,08,04,02,20,12.20
2008,08,04,02,21,12.20
2008,08,04,02,22,12.30
2008,08,04,02,23,12.30
2008,08,04,02,24,12.30
2008,08,04,02,25,12.30
2008,08,04,02,26,12.30
2008,08,04,02,27,12.30
2008,08,04,02,28,12.30
2008,08,04,02,29,12.30
2008,08,04,02,30,12.30
2008,08,04,02,31,12.30
2008,08,04,02,32,12.30
2008,08,04,02,33,12.30
2008,08,04,02,34,12.30
2008,08,04,02,35,12.30
2008,08,04,02,36,12.30
2008,08,04,02,37,12.30
2008,08,04,02,38,12.30
2008,08,04,02,39,12.30
2008,08,04,02,40,12.30
2008,08,04,02,41,12.30
2008,08,04,02,42,12.30
2008,08,04,02,43,12.30
2008,08,04,02,44,12.30
2008,08,04,02,45,12.30
2008,08,04,02,46,12.30
2008,08,04,02,47,12.30
2008,08,04,02,48,12.30
2008,08,04,02,49,12.30
2008,08,04,02,50,12.30
2008,08,04,02,51,12.30
2008,08,04,02,52,12.30
2008,08,04,02,53,12.30
2008,08,04,02,54,12.30
2008,08,04,02,55,12.30
2008,08,04,02,56,12.30
2008,08,04,02,57,12.30
2008,08,04,02,58,12.30
2008,08,04,02,59,12.30
2008,08,04,03,00,12.40
2008,08,04,03,01,12.40
2008,08,04,03,02,12.40
2008,08,04,03,03,12.40
2008,08,04,03,04,12.40
2008,08,04,03,05,12.40
2008,08,04,03,06,12.40
2008,08,04,03,07,12.40
2008,08,04,03,08,12.40
2008,08,04,03,09,12.40
2008,08,04,03,10,12.40
2008,08,04,03,11,12.40
2008,08,04,03,12,12.40
2008,08,04,03,13,12.40
2008,08,04,03,14,12.40
2008,08,04,03,15,12.40
2008,08,04,03,16,12.40
2008,08,04,03,17,12.40
2008,08,04,03,18,12.40
2008,08,04,03,19,12.40
2008,08,04,03,20,12.40
2008,08,04,03,21,12.40
2008,08,04,03,22,12.40
2008,08,04,03,23,12.30
2008,08,04,03,24,12.30
2008,08,04,03,25,12.30
2008,08,04,03,26,12.30
2008,08,04,03,27,12.30
2008,08,04,03,28,12.30
2008,08,04,03,29,12.20
2008,08,04,03,30,12.20
2008,08,04,03,31,12.20
2008,08,04,03,32,12.10
2008,08,04,03,33,12.10
2008,08,04,03,34,12.10
2008,08,04,03,35,12.00
2008,08,04,03,36,12.00
2008,08,04,03,37,12.00
2008,08,04,03,38,12.00
2008,08,04,03,39,11.90
2008,08,04,03,40,11.90
2008,08,04,03,41,11.80
2008,08,04,03,42,11.80
2008,08,04,03,43,11.80
2008,08,04,03,44,11.80
2008,08,04,03,45,11.80
2008,08,04,03,46,11.80
2008,08,04,03,47,11.80
2008,08,04,03,48,11.80
2008,08,04,03,49,11.80
2008,08,04,03,50,11.80
2008,08,04,03,51,11.80
2008,08,04,03,52,11.80
2008,08,04,03,53,11.90
2008,08,04,03,54,11.90
2008,08,04,03,55,11.90
2008,08,04,03,56,11.90
2008,08,04,03,57,11.90
2008,08,04,03,58,11.90
2008,08,04,03,59,11.90
2008,08,04,04,00,11.90
2008,08,04,04,01,11.90
2008,08,04,04,02,11.90
2008,08,04,04,03,11.90
2008,08,04,04,04,11.90
2008,08,04,04,05,11.90
2008,08,04,04,06,11.80
2008,08,04,04,07,11.80
2008,08,04,04,08,11.80
2008,08,04,04,09,11.80
2008,08,04,04,10,11.70
2008,08,04,04,11,11.70
2008,08,04,04,12,11.70
2008,08,04,04,13,11.70
2008,08,04,04,14,11.60
2008,08,04,04,15,11.60
2008,08,04,04,16,11.60
2008,08,04,04,17,11.60
2008,08,04,04,18,11.60
2008,08,04,04,19,11.60
2008,08,04,04,20,11.60
2008,08,04,04,21,11.60
2008,08,04,04,22,11.60
2008,08,04,04,23,11.60
2008,08,04,04,24,11.60
2008,08,04,04,25,11.60
2008,08,04,04,26,11.60
2008,08,04,04,27,11.60
2008,08,04,04,28,11.60
2008,08,04,04,29,11.60
2008,08,04,04,30,11.60
2008,08,04,04,31,11.60
2008,08,04,04,32,11.60
2008,08,04,04,33,11.60
2008,08,04,04,34,11.60
2008,08,04,04,35,11.60
2008,08,04,04,36,11.70
2008,08,04,04,37,11.70
2008,08,04,04,38,11.70
2008,08,04,04,39,11.80
2008,08,04,04,40,11.80
2008,08,04,04,41,11.80
2008,08,04,04,42,11.80
2008,08,04,04,43,11.80
2008,08,04,04,44,11.80
2008,08,04,04,45,11.80
2008,08,04,04,46,11.80
2008,08,04,04,47,11.80
2008,08,04,04,48,11.80
2008,08,04,04,49,11.80
2008,08,04,04,50,11.80
2008,08,04,04,51,11.80
2008,08,04,04,52,11.80
2008,08,04,04,53,11.80
2008,08,04,04,54,11.80
2008,08,04,04,55,11.80
2008,08,04,04,56,11.80
2008,08,04,04,57,11.80
2008,08,04,04,58,11.80
2008,08,04,04,59,11.80
2008,08,04,05,00,11.80
2008,08,04,05,01,11.80
2008,08,04,05,02,11.80
2008,08,04,05,03,11.80
2008,08,04,05,04,11.70
2008,08,04,05,05,11.70
2008,08,04,05,06,11.70
2008,08,04,05,07,11.70
2008,08,04,05,08,11.70
2008,08,04,05,09,11.60
2008,08,04,05,10,11.60
2008,08,04,05,11,11.60
2008,08,04,05,12,11.60
2008,08,04,05,13,11.60
2008,08,04,05,14,11.60
2008,08,04,05,15,11.60
2008,08,04,05,16,11.60
2008,08,04,05,17,11.60
2008,08,04,05,18,11.60
2008,08,04,05,19,11.60
2008,08,04,05,20,11.60
2008,08,04,05,21,11.60
2008,08,04,05,22,11.60
2008,08,04,05,23,11.60
2008,08,04,05,24,11.60
2008,08,04,05,25,11.60
2008,08,04,05,26,11.60
2008,08,04,05,27,11.60
2008,08,04,05,28,11.60
2008,08,04,05,29,11.60
2008,08,04,05,30,11.60
2008,08,04,05,31,11.60
2008,08,04,05,32,11.60
2008,08,04,05,33,11.60
2008,08,04,05,34,11.60
2008,08,04,05,35,11.60
2008,08,04,05,36,11.60
2008,08,04,05,37,11.60
2008,08,04,05,38,11.60
2008,08,04,05,39,11.60
2008,08,04,05,40,11.60
2008,08,04,05,41,11.60
2008,08,04,05,42,11.60
2008,08,04,05,43,11.60
2008,08,04,05,44,11.60
2008,08,04,05,45,11.60
2008,08,04,05,46,11.60
2008,08,04,05,47,11.60
2008,08,04,05,48,11.60
2008,08,04,05,49,11.60
2008,08,04,05,50,11.60
2008,08,04,05,51,11.60
2008,08,04,05,52,11.60
2008,08,04,05,53,11.60
2008,08,04,05,54,11.60
2008,08,04,05,55,11.60
2008,08,04,05,56,11.60
2008,08,04,05,57,11.60
2008,08,04,05,58,11.60
2008,08,04,05,59,11.60
2008,08,04,06,00,11.60
2008,08,04,06,01,11.60
2008,08,04,06,02,11.60
2008,08,04,06,03,11.60
2008,08,04,06,04,11.60
2008,08,04,06,05,11.70
2008,08,04,06,06,11.70
2008,08,04,06,07,11.70
2008,08,04,06,08,11.70
2008,08,04,06,09,11.70
2008,08,04,06,10,11.70
2008,08,04,06,11,11.60
2008,08,04,06,12,11.60
2008,08,04,06,13,11.60
2008,08,04,06,14,11.60
2008,08,04,06,15,11.60
2008,08,04,06,16,11.60
2008,08,04,06,17,11.60
2008,08,04,06,18,11.60
2008,08,04,06,19,11.60
2008,08,04,06,20,11.60
2008,08,04,06,21,11.60
2008,08,04,06,22,11.60
2008,08,04,06,23,11.60
2008,08,04,06,24,11.50
2008,08,04,06,25,11.40
2008,08,04,06,26,11.30
2008,08,04,06,27,11.20
2008,08,04,06,28,11.10
2008,08,04,06,29,11.00
2008,08,04,06,30,10.90
2008,08,04,06,31,10.90
2008,08,04,06,32,10.80
2008,08,04,06,33,10.80
2008,08,04,06,34,10.80
2008,08,04,06,35,10.80
2008,08,04,06,36,10.80
2008,08,04,06,37,10.90
2008,08,04,06,38,10.90
2008,08,04,06,39,10.90
2008,08,04,06,40,10.90
2008,08,04,06,41,11.00
2008,08,04,06,42,11.10
2008,08,04,06,43,11.10
2008,08,04,06,44,11.10
2008,08,04,06,45,11.10
2008,08,04,06,46,11.10
2008,08,04,06,47,11.10
2008,08,04,06,48,11.10
2008,08,04,06,49,11.10
2008,08,04,06,50,11.10
2008,08,04,06,51,11.10
2008,08,04,06,52,11.10
2008,08,04,06,53,11.10
2008,08,04,06,54,11.10
2008,08,04,06,55,11.10
2008,08,04,06,56,11.10
2008,08,04,06,57,11.10
2008,08,04,06,58,11.10
2008,08,04,06,59,11.10
2008,08,04,07,00,11.10
2008,08,04,07,01,11.20
2008,08,04,07,02,11.20
2008,08,04,07,03,11.30
2008,08,04,07,04,11.30
2008,08,04,07,05,11.30
2008,08,04,07,06,11.30
2008,08,04,07,07,11.40
2008,08,04,07,08,11.40
2008,08,04,07,09,11.40
2008,08,04,07,10,11.40
2008,08,04,07,11,11.40
2008,08,04,07,12,11.40
2008,08,04,07,13,11.50
2008,08,04,07,14,11.60
2008,08,04,07,15,11.60
2008,08,04,07,16,11.60
2008,08,04,07,17,11.70
2008,08,04,07,18,11.70
2008,08,04,07,19,11.80
2008,08,04,07,20,11.80
2008,08,04,07,21,11.90
2008,08,04,07,22,11.90
2008,08,04,07,23,11.90
2008,08,04,07,24,12.00
2008,08,04,07,25,12.00
2008,08,04,07,26,12.10
2008,08,04,07,27,12.10
2008,08,04,07,28,12.10
2008,08,04,07,29,12.20
2008,08,04,07,30,12.20
2008,08,04,07,31,12.30
2008,08,04,07,32,12.30
2008,08,04,07,33,12.30
2008,08,04,07,34,12.30
2008,08,04,07,35,12.40
2008,08,04,07,36,12.40
2008,08,04,07,37,12.50
2008,08,04,07,38,12.60
2008,08,04,07,39,12.70
2008,08,04,07,40,12.80
2008,08,04,07,41,12.90
2008,08,04,07,42,13.00
2008,08,04,07,43,13.10
2008,08,04,07,44,13.20
2008,08,04,07,45,13.20
2008,08,04,07,46,13.20
2008,08,04,07,47,13.30
2008,08,04,07,48,13.30
2008,08,04,07,49,13.30
2008,08,04,07,50,13.30
2008,08,04,07,51,13.30
2008,08,04,07,52,13.40
2008,08,04,07,53,13.50
2008,08,04,07,54,13.50
2008,08,04,07,55,13.60
2008,08,04,07,56,13.60
2008,08,04,07,57,13.70
2008,08,04,07,58,13.70
2008,08,04,07,59,13.80
2008,08,04,08,00,13.80
2008,08,04,08,01,13.90
2008,08,04,08,02,14.00
2008,08,04,08,03,14.00
2008,08,04,08,04,14.10
2008,08,04,08,05,14.20
2008,08,04,08,06,14.20
2008,08,04,08,07,14.30
2008,08,04,08,08,14.40
2008,08,04,08,09,14.50
2008,08,04,08,10,14.60
2008,08,04,08,11,14.60
2008,08,04,08,12,14.70
2008,08,04,08,13,14.70
2008,08,04,08,14,14.80
2008,08,04,08,15,14.80
2008,08,04,08,16,14.90
2008,08,04,08,17,14.90
2008,08,04,08,18,14.90
2008,08,04,08,19,15.00
2008,08,04,08,20,15.10
2008,08,04,08,21,15.10
2008,08,04,08,22,15.20
2008,08,04,08,23,15.30
2008,08,04,08,24,15.30
2008,08,04,08,25,15.40
2008,08,04,08,26,15.50
2008,08,04,08,27,15.60
2008,08,04,08,28,15.70
2008,08,04,08,29,15.70
2008,08,04,08,30,15.80
2008,08,04,08,31,15.90
2008,08,04,08,32,16.00
2008,08,04,08,33,16.10
2008,08,04,08,34,16.20
2008,08,04,08,35,16.30
2008,08,04,08,36,16.40
2008,08,04,08,37,16.50
2008,08,04,08,38,16.60
2008,08,04,08,39,16.70
2008,08,04,08,40,16.70
2008,08,04,08,41,16.70
2008,08,04,08,42,16.70
2008,08,04,08,43,16.70
2008,08,04,08,44,16.80
2008,08,04,08,45,16.80
2008,08,04,08,46,16.80
2008,08,04,08,47,16.90
2008,08,04,08,48,17.00
2008,08,04,08,49,17.00
2008,08,04,08,50,17.10
2008,08,04,08,51,17.20
2008,08,04,08,52,17.30
2008,08,04,08,53,17.30
2008,08,04,08,54,17.40
2008,08,04,08,55,17.50
2008,08,04,08,56,17.60
2008,08,04,08,57,17.70
2008,08,04,08,58,17.80
2008,08,04,08,59,17.80
2008,08,04,09,00,17.90
2008,08,04,09,01,18.10
2008,08,04,09,02,18.10
2008,08,04,09,03,18.20
2008,08,04,09,04,18.20
2008,08,04,09,05,18.30
2008,08,04,09,06,18.30
2008,08,04,09,07,18.30
2008,08,04,09,08,18.30
2008,08,04,09,09,18.30
2008,08,04,09,10,18.30
2008,08,04,09,11,18.30
2008,08,04,09,12,18.30
2008,08,04,09,13,18.20
2008,08,04,09,14,18.20
2008,08,04,09,15,18.20
2008,08,04,09,16,18.20
2008,08,04,09,17,18.20
2008,08,04,09,18,18.20
2008,08,04,09,19,18.20
2008,08,04,09,20,18.20
2008,08,04,09,21,18.20
2008,08,04,09,22,18.30
2008,08,04,09,23,18.30
2008,08,04,09,24,18.30
2008,08,04,09,25,18.30
2008,08,04,09,26,18.40
2008,08,04,09,27,18.40
2008,08,04,09,28,18.50
2008,08,04,09,29,18.60
2008,08,04,09,30,18.60
2008,08,04,09,31,18.70
2008,08,04,09,32,18.80
2008,08,04,09,33,18.80
2008,08,04,09,34,18.80
2008,08,04,09,35,18.90
2008,08,04,09,36,18.80
2008,08,04,09,37,18.80
2008,08,04,09,38,18.80
2008,08,04,09,39,18.80
2008,08,04,09,40,18.80
2008,08,04,09,41,18.80
2008,08,04,09,42,18.70
2008,08,04,09,43,18.80
2008,08,04,09,44,18.80
2008,08,04,09,45,18.80
2008,08,04,09,46,18.80
2008,08,04,09,47,18.90
2008,08,04,09,48,18.90
2008,08,04,09,49,18.90
2008,08,04,09,50,18.90
2008,08,04,09,51,19.10
2008,08,04,09,52,19.00
2008,08,04,09,53,18.90
2008,08,04,09,54,18.90
2008,08,04,09,55,19.00
2008,08,04,09,56,19.10
2008,08,04,09,57,19.10
2008,08,04,09,58,19.10
2008,08,04,09,59,19.10
2008,08,04,10,00,19.10
2008,08,04,10,01,19.10
2008,08,04,10,02,19.00
2008,08,04,10,03,19.00
2008,08,04,10,04,19.10
2008,08,04,10,05,19.10
2008,08,04,10,06,19.10
2008,08,04,10,07,19.10
2008,08,04,10,08,19.20
2008,08,04,10,09,19.20
2008,08,04,10,10,19.30
2008,08,04,10,11,19.30
2008,08,04,10,12,19.30
2008,08,04,10,13,19.30
2008,08,04,10,14,19.30
2008,08,04,10,15,19.30
2008,08,04,10,16,19.40
2008,08,04,10,17,19.50
2008,08,04,10,18,19.60
2008,08,04,10,19,19.60
2008,08,04,10,20,19.60
2008,08,04,10,21,19.60
2008,08,04,10,22,19.60
2008,08,04,10,23,19.60
2008,08,04,10,24,19.60
2008,08,04,10,25,19.60
2008,08,04,10,26,19.60
2008,08,04,10,27,19.70
2008,08,04,10,28,19.70
2008,08,04,10,29,19.70
2008,08,04,10,30,19.70
2008,08,04,10,31,19.80
2008,08,04,10,32,19.80
2008,08,04,10,33,19.90
2008,08,04,10,34,19.90
2008,08,04,10,35,19.90
2008,08,04,10,36,19.90
2008,08,04,10,37,19.90
2008,08,04,10,38,19.80
2008,08,04,10,39,19.90
2008,08,04,10,40,19.80
2008,08,04,10,41,19.70
2008,08,04,10,42,19.80
2008,08,04,10,43,19.80
2008,08,04,10,44,19.90
2008,08,04,10,45,20.00
2008,08,04,10,46,20.10
2008,08,04,10,47,20.20
2008,08,04,10,48,20.20
2008,08,04,10,49,20.30
2008,08,04,10,50,20.30
2008,08,04,10,51,20.30
2008,08,04,10,52,20.20
2008,08,04,10,53,20.20
2008,08,04,10,54,20.30
2008,08,04,10,55,20.30
2008,08,04,10,56,20.40
2008,08,04,10,57,20.40
2008,08,04,10,58,20.50
2008,08,04,10,59,20.60
2008,08,04,11,00,20.60
2008,08,04,11,01,20.70
2008,08,04,11,02,20.70
2008,08,04,11,03,20.70
2008,08,04,11,04,20.80
2008,08,04,11,05,20.80
2008,08,04,11,06,20.80
2008,08,04,11,07,20.90
2008,08,04,11,08,20.90
2008,08,04,11,09,21.00
2008,08,04,11,10,21.10
2008,08,04,11,11,21.10
2008,08,04,11,12,21.00
2008,08,04,11,13,21.10
2008,08,04,11,14,21.10
2008,08,04,11,15,21.10
2008,08,04,11,16,21.00
2008,08,04,11,17,21.00
2008,08,04,11,18,21.10
2008,08,04,11,19,21.00
2008,08,04,11,20,21.00
2008,08,04,11,21,21.00
2008,08,04,11,22,21.00
2008,08,04,11,23,21.00
2008,08,04,11,24,21.00
2008,08,04,11,25,21.10
2008,08,04,11,26,21.10
2008,08,04,11,27,21.20
2008,08,04,11,28,21.20
2008,08,04,11,29,21.30
2008,08,04,11,30,21.30
2008,08,04,11,31,21.30
2008,08,04,11,32,21.30
2008,08,04,11,33,21.30
2008,08,04,11,34,21.30
2008,08,04,11,35,21.30
2008,08,04,11,36,21.30
2008,08,04,11,37,21.30
2008,08,04,11,38,21.30
2008,08,04,11,39,21.30
2008,08,04,11,40,21.40
2008,08,04,11,41,21.40
2008,08,04,11,42,21.40
2008,08,04,11,43,21.50
2008,08,04,11,44,21.60
2008,08,04,11,45,21.60
2008,08,04,11,46,21.70
2008,08,04,11,47,21.70
2008,08,04,11,48,21.80
2008,08,04,11,49,21.90
2008,08,04,11,50,21.90
2008,08,04,11,51,21.90
2008,08,04,11,52,21.80
2008,08,04,11,53,21.80
2008,08,04,11,54,21.90
2008,08,04,11,55,22.00
2008,08,04,11,56,22.00
2008,08,04,11,57,21.90
2008,08,04,11,58,21.80
2008,08,04,11,59,21.80
2008,08,04,12,00,21.60
2008,08,04,12,01,21.60
2008,08,04,12,02,21.60
2008,08,04,12,03,21.60
2008,08,04,12,04,21.70
2008,08,04,12,05,21.80
2008,08,04,12,06,21.90
2008,08,04,12,07,22.00
2008,08,04,12,08,22.10
2008,08,04,12,09,22.20
2008,08,04,12,10,22.30
2008,08,04,12,11,22.30
2008,08,04,12,12,22.30
2008,08,04,12,13,22.30
2008,08,04,12,14,22.20
2008,08,04,12,15,22.20
2008,08,04,12,16,22.20
2008,08,04,12,17,22.10
2008,08,04,12,18,22.20
2008,08,04,12,19,22.30
2008,08,04,12,20,22.30
2008,08,04,12,21,22.20
2008,08,04,12,22,22.20
2008,08,04,12,23,22.20
2008,08,04,12,24,22.20
2008,08,04,12,25,22.10
2008,08,04,12,26,22.10
2008,08,04,12,27,22.20
2008,08,04,12,28,22.20
2008,08,04,12,29,22.30
2008,08,04,12,30,22.30
2008,08,04,12,31,22.20
2008,08,04,12,32,22.10
2008,08,04,12,33,22.10
2008,08,04,12,34,22.20
2008,08,04,12,35,22.30
2008,08,04,12,36,22.30
2008,08,04,12,37,22.30
2008,08,04,12,38,22.20
2008,08,04,12,39,22.30
2008,08,04,12,40,22.30
2008,08,04,12,41,22.40
2008,08,04,12,42,22.40
2008,08,04,12,43,22.50
2008,08,04,12,44,22.60
2008,08,04,12,45,22.70
2008,08,04,12,46,22.70
2008,08,04,12,47,22.70
2008,08,04,12,48,22.70
2008,08,04,12,49,22.90
2008,08,04,12,50,22.90
2008,08,04,12,51,22.90
2008,08,04,12,52,23.00
2008,08,04,12,53,23.00
2008,08,04,12,54,22.90
2008,08,04,12,55,22.90
2008,08,04,12,56,22.90
2008,08,04,12,57,22.80
2008,08,04,12,58,22.80
2008,08,04,12,59,22.90
2008,08,04,13,00,22.90
2008,08,04,13,01,22.90
2008,08,04,13,02,22.90
2008,08,04,13,03,22.90
2008,08,04,13,04,23.10
2008,08,04,13,05,23.00
2008,08,04,13,06,22.90
2008,08,04,13,07,22.90
2008,08,04,13,08,22.80
2008,08,04,13,09,22.70
2008,08,04,13,10,22.80
2008,08,04,13,11,22.80
2008,08,04,13,12,22.90
2008,08,04,13,13,22.90
2008,08,04,13,14,23.00
2008,08,04,13,15,23.10
2008,08,04,13,16,23.10
2008,08,04,13,17,23.20
2008,08,04,13,18,23.30
2008,08,04,13,19,23.30
2008,08,04,13,20,23.40
2008,08,04,13,21,23.40
2008,08,04,13,22,23.40
2008,08,04,13,23,23.50
2008,08,04,13,24,23.60
2008,08,04,13,25,23.60
2008,08,04,13,26,23.60
2008,08,04,13,27,23.70
2008,08,04,13,28,23.70
2008,08,04,13,29,23.70
2008,08,04,13,30,23.70
2008,08,04,13,31,23.70
2008,08,04,13,32,23.70
2008,08,04,13,33,23.70
2008,08,04,13,34,23.70
2008,08,04,13,35,23.70
2008,08,04,13,36,23.70
2008,08,04,13,37,23.70
2008,08,04,13,38,23.70
2008,08,04,13,39,23.60
2008,08,04,13,40,23.50
2008,08,04,13,41,23.40
2008,08,04,13,42,23.30
2008,08,04,13,43,23.40
2008,08,04,13,44,23.50
2008,08,04,13,45,23.60
2008,08,04,13,46,23.70
2008,08,04,13,47,23.70
2008,08,04,13,48,23.70
2008,08,04,13,49,23.70
2008,08,04,13,50,23.70
2008,08,04,13,51,23.70
2008,08,04,13,52,23.60
2008,08,04,13,53,23.50
2008,08,04,13,54,23.40
2008,08,04,13,55,23.50
2008,08,04,13,56,23.60
2008,08,04,13,57,23.60
2008,08,04,13,58,23.70
2008,08,04,13,59,23.70
2008,08,04,14,00,23.80
2008,08,04,14,01,23.80
2008,08,04,14,02,23.70
2008,08,04,14,03,23.70
2008,08,04,14,04,23.60
2008,08,04,14,05,23.60
2008,08,04,14,06,23.60
2008,08,04,14,07,23.60
2008,08,04,14,08,23.70
2008,08,04,14,09,23.70
2008,08,04,14,10,23.70
2008,08,04,14,11,23.60
2008,08,04,14,12,23.70
2008,08,04,14,13,23.70
2008,08,04,14,14,23.70
2008,08,04,14,15,23.80
2008,08,04,14,16,23.80
2008,08,04,14,17,23.80
2008,08,04,14,18,23.80
2008,08,04,14,19,23.80
2008,08,04,14,20,23.80
2008,08,04,14,21,23.70
2008,08,04,14,22,23.80
2008,08,04,14,23,23.70
2008,08,04,14,24,23.70
2008,08,04,14,25,23.80
2008,08,04,14,26,23.80
2008,08,04,14,27,24.00
2008,08,04,14,28,24.10
2008,08,04,14,29,24.10
2008,08,04,14,30,24.10
2008,08,04,14,31,24.10
2008,08,04,14,32,24.20
2008,08,04,14,33,24.30
2008,08,04,14,34,24.40
2008,08,04,14,35,24.30
2008,08,04,14,36,24.20
2008,08,04,14,37,24.10
2008,08,04,14,38,24.10
2008,08,04,14,39,24.20
2008,08,04,14,40,24.20
2008,08,04,14,41,24.20
2008,08,04,14,42,24.20
2008,08,04,14,43,24.10
2008,08,04,14,44,24.10
2008,08,04,14,45,24.10
2008,08,04,14,46,24.10
2008,08,04,14,47,24.10
2008,08,04,14,48,24.10
2008,08,04,14,49,24.10
2008,08,04,14,50,24.20
2008,08,04,14,51,24.20
2008,08,04,14,52,24.30
2008,08,04,14,53,24.20
2008,08,04,14,54,24.20
2008,08,04,14,55,24.10
2008,08,04,14,56,24.20
2008,08,04,14,57,24.30
2008,08,04,14,58,24.40
2008,08,04,14,59,24.40
2008,08,04,15,00,24.40
2008,08,04,15,01,24.50
2008,08,04,15,02,24.60
2008,08,04,15,03,24.60
2008,08,04,15,04,24.60
2008,08,04,15,05,24.50
2008,08,04,15,06,24.50
2008,08,04,15,07,24.50
2008,08,04,15,08,24.40
2008,08,04,15,09,24.40
2008,08,04,15,10,24.40
2008,08,04,15,11,24.40
2008,08,04,15,12,24.50
2008,08,04,15,13,24.50
2008,08,04,15,14,24.50
2008,08,04,15,15,24.60
2008,08,04,15,16,24.60
2008,08,04,15,17,24.60
2008,08,04,15,18,24.60
2008,08,04,15,19,24.60
2008,08,04,15,20,24.60
2008,08,04,15,21,24.60
2008,08,04,15,22,24.60
2008,08,04,15,23,24.70
2008,08,04,15,24,24.60
2008,08,04,15,25,24.60
2008,08,04,15,26,24.50
2008,08,04,15,27,24.60
2008,08,04,15,28,24.60
2008,08,04,15,29,24.60
2008,08,04,15,30,24.60
2008,08,04,15,31,24.60
2008,08,04,15,32,24.60
2008,08,04,15,33,24.50
2008,08,04,15,34,24.50
2008,08,04,15,35,24.60
2008,08,04,15,36,24.70
2008,08,04,15,37,24.80
2008,08,04,15,38,24.90
2008,08,04,15,39,24.90
2008,08,04,15,40,24.90
2008,08,04,15,41,24.80
2008,08,04,15,42,24.80
2008,08,04,15,43,24.80
2008,08,04,15,44,24.80
2008,08,04,15,45,24.70
2008,08,04,15,46,24.70
2008,08,04,15,47,24.60
2008,08,04,15,48,24.60
2008,08,04,15,49,24.60
2008,08,04,15,50,24.60
2008,08,04,15,51,24.70
2008,08,04,15,52,24.70
2008,08,04,15,53,24.70
2008,08,04,15,54,24.80
2008,08,04,15,55,24.90
2008,08,04,15,56,25.00
2008,08,04,15,57,25.00
2008,08,04,15,58,25.00
2008,08,04,15,59,25.10
2008,08,04,16,00,25.10
2008,08,04,16,01,25.20
2008,08,04,16,02,25.20
2008,08,04,16,03,25.20
2008,08,04,16,04,25.20
2008,08,04,16,05,25.20
2008,08,04,16,06,25.20
2008,08,04,16,07,25.20
2008,08,04,16,08,25.20
2008,08,04,16,09,25.20
2008,08,04,16,10,25.30
2008,08,04,16,11,25.40
2008,08,04,16,12,25.50
2008,08,04,16,13,25.40
2008,08,04,16,14,25.40
2008,08,04,16,15,25.40
2008,08,04,16,16,25.40
2008,08,04,16,17,25.30
2008,08,04,16,18,25.40
2008,08,04,16,19,25.40
2008,08,04,16,20,25.40
2008,08,04,16,21,25.40
2008,08,04,16,22,25.40
2008,08,04,16,23,25.50
2008,08,04,16,24,25.60
2008,08,04,16,25,25.40
2008,08,04,16,26,24.90
2008,08,04,16,27,24.40
2008,08,04,16,28,24.10
2008,08,04,16,29,23.80
2008,08,04,16,30,23.60
2008,08,04,16,31,23.50
2008,08,04,16,32,23.60
2008,08,04,16,33,23.60
2008,08,04,16,34,23.70
2008,08,04,16,35,23.80
2008,08,04,16,36,24.10
2008,08,04,16,37,24.40
2008,08,04,16,38,24.60
2008,08,04,16,39,24.80
2008,08,04,16,40,24.90
2008,08,04,16,41,25.00
2008,08,04,16,42,25.00
2008,08,04,16,43,25.10
2008,08,04,16,44,25.20
2008,08,04,16,45,25.30
2008,08,04,16,46,25.40
2008,08,04,16,47,25.40
2008,08,04,16,48,25.50
2008,08,04,16,49,25.50
2008,08,04,16,50,25.50
2008,08,04,16,51,25.60
2008,08,04,16,52,25.70
2008,08,04,16,53,25.80
2008,08,04,16,54,25.80
2008,08,04,16,55,25.80
2008,08,04,16,56,25.90
2008,08,04,16,57,25.90
2008,08,04,16,58,25.90
2008,08,04,16,59,25.80
2008,08,04,17,00,25.80
2008,08,04,17,01,25.80
2008,08,04,17,02,25.90
2008,08,04,17,03,25.90
2008,08,04,17,04,26.00
2008,08,04,17,05,26.10
2008,08,04,17,06,26.20
2008,08,04,17,07,26.20
2008,08,04,17,08,26.20
2008,08,04,17,09,26.10
2008,08,04,17,10,26.10
2008,08,04,17,11,25.80
2008,08,04,17,12,25.60
2008,08,04,17,13,25.40
2008,08,04,17,14,25.10
2008,08,04,17,15,24.90
2008,08,04,17,16,24.70
2008,08,04,17,17,24.40
2008,08,04,17,18,24.20
2008,08,04,17,19,24.00